Location: Tehachapi Municipal Airport
(35.1300°N, 118.4400°W)
Time: 08:55:25
(UTC-07:00)

Daily predictions for brighter satellites

Satellite Brightness Start Highest point End
(mag) Time Altitude Azimuth Time Altitude Azimuth Time Altitude Azimuth
Cosmos 1605 Rocket 4.1 20:31:28 10° N 20:37:47 80° E 20:44:08 10° S
Cosmos 1140 Rocket 4.4 20:35:00 10° SSW 20:40:02 55° WNW 20:45:06 10° N
Envisat 3.2 20:35:59 10° SSE 20:40:56 57° ENE 20:45:55 10° N
Meteor 1-29 4.0 20:38:48 10° NE 20:41:48 27° E 20:44:47 10° SSE
Tiangong 1 3.5 20:42:41 10° NW 20:44:38 17° N 20:46:34 10° NE
Abrixas 2.7 20:46:12 10° SSW 20:48:42 35° SE 20:51:13 10° ENE
Milstar 3 Cent rocket 3.6 20:44:15 10° WSW 20:49:55 43° S 21:00:19 10° ESE
Cosmos 2297 Rocket 4.2 20:45:45 10° SW 20:50:49 33° WNW 20:55:55 10° N
Meteor 2-1 Rocket 4.3 20:48:44 10° N 20:54:33 87° E 21:00:12 10° S
OAO 1 Rocket 4.5 20:50:19 10° W 20:55:43 89° S 21:01:06 10° E
ATLAS 5 CENTAUR R/B 3.4 20:51:31 10° WSW 20:55:50 40° NW 21:00:31 10° NNE
Cosmos 2263 Rocket 3.7 20:53:10 10° SE 20:56:28 16° E 20:59:47 10° ENE
Cosmos 1727 Rocket 4.3 20:50:24 10° S 20:56:42 77° W 21:03:05 10° N
Helios 1B rocket 2.4 20:53:42 10° NNE 20:57:50 66° ESE 21:01:55 10° S
ATLAS 2A CENTAUR R/B 4.5 20:50:35 10° WSW 20:58:09 56° S 21:28:37 10° ESE
Cosmos 2208 Rocket 4.2 20:55:25 10° N 21:00:42 59° ENE 21:05:58 10° SSE
Okean 3 Rocket 3.6 21:00:17 10° S 21:04:47 89° E 21:09:16 10° N
SAR-Lupe-4 4.0 21:02:33 12° SSE 21:05:43 45° ENE 21:09:09 10° N
Spot 1 4.0 21:03:51 10° SSE 21:07:54 66° ENE 21:12:06 10° N
Cosmos 1570 Rocket 4.0 21:04:27 10° NNW 21:09:46 81° ENE 21:14:53 11° SSE
Cosmos 1766 Rocket 3.9 21:05:45 10° SSE 21:09:50 44° E 21:13:58 10° NNE
USA 32 4.4 21:06:03 10° SSW 21:11:14 67° W 21:16:28 10° N
Helios 1A 2.9 21:08:15 10° SSE 21:12:24 89° ENE 21:16:34 10° NNW
CZ-4B DEB 2.6 21:11:01 14° SSE 21:13:23 64° ENE 21:16:19 10° N
Cosmos 1356 Rocket 3.5 21:12:32 10° S 21:16:47 89° NW 21:21:06 10° N
Cosmos 1242 Rocket 2.6 21:13:51 10° N 21:17:33 66° E 21:20:29 15° SSE
Cosmos 1674 2.7 21:15:14 10° S 21:18:59 78° W 21:22:45 10° N
Meteor 1-21 Rocket 4.2 21:15:48 10° S 21:21:29 87° E 21:27:06 10° N
Delta 2 Rocket 4.1 21:16:41 10° WSW 21:22:15 73° SSE 21:28:02 10° E
Cosmos 2016 Rocket 4.3 21:17:09 10° N 21:23:08 48° E 21:27:42 17° SSE
Cosmos 2237 Rocket 4.4 21:19:16 10° NW 21:23:24 21° W 21:27:33 10° SSW
USA 234 3.6 21:18:55 10° ENE 21:24:59 40° SE 21:31:01 10° SSW
SAR-Lupe-1 4.0 21:22:42 17° SSE 21:25:20 73° ENE 21:28:56 10° N
ERS-1 Rocket 3.2 21:21:51 16° SE 21:25:40 54° ENE 21:30:35 10° N
Cosmos 468 Rocket 4.3 21:22:41 10° N 21:27:39 48° ENE 21:30:51 21° SE
RESURS DK-1 3.0 21:24:23 10° N 21:28:21 43° ENE 21:30:33 23° ESE
ARGOS 3.8 21:28:10 19° SE 21:31:30 39° ENE 21:36:28 10° N
Cosmos 1603 3.9 21:28:30 10° NNW 21:34:04 57° ENE 21:37:34 22° SE
Cosmos 1939 Rocket 4.2 21:34:38 10° SSW 21:38:22 37° W 21:42:09 10° NNW
Cosmos 220 Rocket 3.9 21:34:11 10° S 21:38:36 73° ESE 21:42:58 10° NNE
Resurs 01 Rocket 4.3 21:37:15 10° SW 21:39:34 14° W 21:41:55 10° WNW
Cosmos 1908 3.8 21:36:11 10° NNW 21:39:59 54° W 21:43:08 14° S
Cosmos 2228 Rocket 3.8 21:38:48 10° N 21:43:04 38° E 21:44:45 28° ESE
KORONAS-FOTON 4.4 21:39:37 10° SSW 21:43:21 56° W 21:47:05 10° N
Cosmos 371 Rocket 3.8 21:39:19 10° N 21:43:56 44° ENE 21:46:04 27° ESE
Cosmos 1943 4.1 21:41:41 10° N 21:46:51 35° ENE 21:49:30 23° ESE
Meteor 2-2 Rocket 4.4 21:41:50 10° N 21:47:36 60° E 21:51:00 25° SSE
GPS 2-05 Rocket1 2.4 21:46:28 10° W 21:49:33 87° SSE 21:50:27 43° E
SL-16 R/B 3.6 21:45:17 10° NW 21:50:15 32° WSW 21:55:11 10° SSW
ERBS 3.3 21:47:44 10° NNW 21:50:54 36° NE 21:51:46 30° E
Cosmos 1459 Rocket 4.5 21:52:28 10° NNW 21:58:36 58° W 22:04:11 12° SSW
H-2A R/B 2.6 21:58:01 30° SE 22:00:12 46° ENE 22:05:22 10° N
Abrixas rocket 3.3 21:58:51 10° NW 22:01:52 35° NNE 22:02:33 31° ENE
Cosmos 2151 3.2 22:04:24 43° SE 22:05:14 50° E 22:09:25 10° NNE
SPOT 5 2.9 22:03:27 35° SSE 22:05:30 74° ENE 22:10:36 10° N
SL-08 RB Rocket 3.7 22:03:59 39° SE 22:05:33 65° ENE 22:10:08 10° N
Lacrosse 5 1.8 22:03:24 10° NW 22:08:28 80° SW 22:10:17 40° SSE
Cosmos 1626 2.8 22:12:41 38° ENE 22:12:41 38° ENE 22:15:45 10° NNE
Cosmos 1356 3.4 22:12:38 66° E 22:12:38 66° E 22:16:03 10° NNE
Cosmos 1703 3.8 22:14:37 42° E 22:14:37 42° E 22:18:13 10° NNE
Meteor 2-10 4.2 22:09:15 10° N 22:14:57 89° E 22:17:34 34° S
Landsat 7 4.4 22:14:00 37° ESE 22:14:59 41° ENE 22:19:27 10° N
Cosmos 2123 Rocket 4.2 22:10:36 13° SSW 22:16:10 69° W 22:22:22 10° N
Cosmos 1726 3.0 22:15:27 10° NNW 22:18:57 43° W 22:20:02 33° SW
Tiangong 1 2.6 22:18:19 10° NW 22:20:43 26° NNE 22:20:43 26° NNE
Cosmos 1354 Rocket 3.9 22:25:52 40° S 22:27:46 77° ESE 22:33:01 10° NNE
Cosmos 1500 Rocket 3.8 22:27:47 37° SSW 22:29:25 66° W 22:33:52 10° N
Terra 2.4 22:29:25 40° E 22:29:55 41° ENE 22:34:22 10° N
Cosmos 1814 Rocket 4.3 22:24:57 10° NNW 22:30:12 60° WSW 22:32:02 38° SSW
Meteor 1-11 4.4 22:31:12 27° SSW 22:34:27 74° W 22:40:16 10° N
Cosmos 1763 Rocket 3.5 22:30:14 10° NNW 22:35:18 69° WSW 22:36:32 49° SSW
Cosmos 1300 3.9 22:32:01 10° NNW 22:35:33 36° W 22:36:21 32° WSW
Cosmos 841 Rocket 3.4 22:30:26 10° NNW 22:35:41 90° ENE 22:36:47 57° SSE
IGS 5A 4.0 22:39:22 45° ENE 22:39:22 45° ENE 22:43:05 10° N
Cosmos 2263 Rocket 2.8 22:34:23 10° SW 22:39:49 55° WNW 22:45:19 10° NNE
Cosmos 304 Rocket 4.1 22:35:30 10° N 22:40:09 50° ENE 22:40:25 49° E
CARTOSAT-1 3.8 22:40:30 52° ENE 22:40:30 52° ENE 22:44:36 10° N
Cosmos 2285 Rocket 4.3 22:34:45 10° N 22:40:59 55° ENE 22:42:35 44° ESE
OAO 1 Rocket 4.3 22:36:05 10° W 22:41:27 76° SSW 22:42:12 64° SE
CZ-4 R/B 4.4 22:43:01 10° NNE 22:46:58 43° ENE 22:46:58 43° ENE
Cosmos 1805 Rocket 4.1 22:49:44 48° NE 22:49:44 48° NE 22:53:12 10° NNE
DMSP B5D2-2 4.2 22:46:28 10° N 22:51:39 70° WNW 22:53:20 43° SW
Cosmos 1151 Rocket 3.5 22:48:37 10° NNW 22:52:54 53° W 22:53:14 51° WSW
Meteor 1-27 4.4 22:48:33 10° NNW 22:54:18 68° W 22:55:45 49° SSW
SPOT 1/Viking Rocket 4.2 22:54:21 40° SW 22:55:34 48° W 23:00:33 10° NNW
H-2A R/B 2.4 23:01:49 59° NNE 23:01:49 59° NNE 23:05:26 10° N
Cosmos 2058 4.3 23:03:10 30° WSW 23:04:01 33° WNW 23:07:50 10° NNW
Delta 2 Rocket 4.1 22:59:25 10° W 23:05:13 84° N 23:06:27 57° E
Spot 4 4.3 23:08:10 51° ENE 23:08:10 51° ENE 23:12:34 10° N
USA 234 4.0 23:01:43 10° NE 23:08:00 51° NW 23:14:16 10° WSW
Cosmos 1455 3.2 23:04:32 10° N 23:07:19 46° NNW 23:07:19 46° NNW
Cosmos 1464 Rocket 4.0 23:02:15 10° N 23:08:24 63° E 23:09:02 59° ESE
Cosmos 836 Rocket 4.4 23:04:47 10° NNW 23:10:05 79° WSW 23:10:17 78° SW
Cosmos 1844 Rocket 3.1 23:13:19 48° ENE 23:13:19 48° ENE 23:17:51 10° NNE
CZ-4C R/B 2.0 23:16:27 79° WSW 23:16:44 84° WNW 23:22:30 10° NNE
Cosmos 967 Rocket 4.5 23:13:11 10° NNW 23:19:33 68° ENE 23:20:22 61° ESE
Cosmos 540 Rocket 3.7 23:23:23 10° NNW 23:28:08 60° W 23:28:08 60° W
CZ-4B R/B 3.5 23:24:30 10° N 23:29:37 79° NW 23:29:37 79° NW
Cosmos 968 Rocket 3.6 23:32:29 75° N 23:32:29 75° N 23:37:20 10° NNE
H-2A R/B 4.0 23:38:39 18° WSW 23:39:47 19° W 23:43:34 10° NW
Tsikada Rocket 3.9 23:41:15 77° ESE 23:41:21 77° E 23:47:41 10° N
Sich 1 4.2 23:42:47 40° NW 23:42:47 40° NW 23:45:52 10° N
CZ-2C R/B 3.6 23:41:35 10° NNE 23:45:10 36° ENE 23:45:10 36° ENE
Meteor 2-10 Rocket 4.2 23:44:15 10° N 23:48:56 49° NE 23:48:56 49° NE
